2023/08/15 00:00:00, 0.7,23.8
2023/08/15 00:10:00, 0.7,23.7
2023/08/15 00:20:00, 0.8,23.9
2023/08/15 00:30:00, 0.7,23.7
2023/08/15 00:40:00, 0.7,24.0
2023/08/15 00:50:00, 0.8,23.7
2023/08/15 01:00:00, 0.8,23.9
2023/08/15 01:10:00, 0.7,23.8
2023/08/15 01:20:00, 0.8,24.0
2023/08/15 01:30:00, 0.8,23.9
2023/08/15 01:40:00, 0.8,24.0
2023/08/15 01:50:00, 0.7,24.0
2023/08/15 02:00:00, 0.7,24.1
2023/08/15 02:10:00, 0.8,24.0
2023/08/15 02:20:00, 0.6,24.0
2023/08/15 02:30:00, 0.6,24.1
2023/08/15 02:40:00, 0.6,24.1
2023/08/15 02:50:00, 0.6,24.0
2023/08/15 03:00:00, 0.6,23.9
2023/08/15 03:10:00, 0.6,24.0
2023/08/15 03:20:00, 0.6,23.9
2023/08/15 03:30:00, 0.7,23.6
2023/08/15 03:40:00, 0.8,23.6
2023/08/15 03:50:00, 0.7,23.4
2023/08/15 04:00:00, 0.7,23.0
2023/08/15 04:10:00, 0.8,22.7
2023/08/15 04:20:00, 0.7,22.8
2023/08/15 04:30:00, 0.7,22.8
2023/08/15 04:40:00, 0.7,23.1
2023/08/15 04:50:00, 0.7,23.3
2023/08/15 05:00:00, 0.8,23.2
2023/08/15 05:10:00, 0.8,23.3
2023/08/15 05:20:00, 0.8,23.3
2023/08/15 05:30:00, 0.7,23.6
2023/08/15 05:40:00, 0.7,23.6
2023/08/15 05:50:00, 0.7,23.6
2023/08/15 06:00:00, 0.7,23.5
2023/08/15 06:10:00, 0.7,23.4
2023/08/15 06:20:00, 0.7,23.2
2023/08/15 06:30:00, 0.7,23.1
2023/08/15 06:40:00, 0.7,23.5
2023/08/15 06:50:00, 0.7,23.3
2023/08/15 07:00:00, 0.7,23.3
2023/08/15 07:10:00, 0.7,23.3
2023/08/15 07:20:00, 0.7,23.4
2023/08/15 07:30:00, 0.7,23.3
2023/08/15 07:40:00, 0.8,23.6
2023/08/15 07:50:00, 0.7,24.0
2023/08/15 08:00:00, 0.7,24.1
2023/08/15 08:10:00, 0.7,24.0
2023/08/15 08:20:00, 0.8,23.9
2023/08/15 08:30:00, 0.8,23.5
2023/08/15 08:40:00, 0.7,23.2
2023/08/15 08:50:00, 0.7,23.6
2023/08/15 09:00:00, 0.7,23.8
2023/08/15 09:10:00, 0.7,23.9
2023/08/15 09:20:00, 0.8,23.9
2023/08/15 09:30:00, 0.8,23.9
2023/08/15 09:40:00, 0.7,24.0
2023/08/15 09:50:00, 0.8,24.0
2023/08/15 10:00:00, 0.8,24.1
2023/08/15 10:10:00, 0.7,23.9
2023/08/15 10:20:00, 0.7,23.5
2023/08/15 10:30:00, 0.7,23.3
2023/08/15 10:40:00, 0.8,23.2
2023/08/15 10:50:00, 0.8,23.3
2023/08/15 11:00:00, 0.7,22.9
2023/08/15 11:10:00, 0.7,23.0
2023/08/15 11:20:00, 0.7,23.0
2023/08/15 11:30:00, 0.7,22.8
2023/08/15 11:40:00, 0.7,22.9
2023/08/15 11:50:00, 0.7,22.9
2023/08/15 12:00:00, 0.7,22.8
2023/08/15 12:10:00, 0.6,22.9
2023/08/15 12:20:00, 0.7,22.8
2023/08/15 12:30:00, 0.7,22.7
2023/08/15 12:40:00, 0.7,22.9
2023/08/15 12:50:00,---,22.7
2023/08/15 13:00:00,---,22.8
2023/08/15 13:10:00, 0.6,22.4
2023/08/15 13:20:00, 0.8,22.4
2023/08/15 13:30:00,---,22.4
2023/08/15 13:40:00,---,22.0
2023/08/15 13:50:00,---,22.2
2023/08/15 14:00:00,---,22.2
2023/08/15 14:10:00,---,22.3
2023/08/15 14:20:00,---,22.2
2023/08/15 14:30:00,---,22.2
2023/08/15 14:40:00,---,22.2
2023/08/15 14:50:00,---,22.3
2023/08/15 15:00:00,---,22.7
2023/08/15 15:10:00,---,22.6
2023/08/15 15:20:00,---,22.8
2023/08/15 15:30:00,---,22.8
2023/08/15 15:40:00,---,22.9
2023/08/15 15:50:00,---,22.8
2023/08/15 16:00:00, 0.6,22.8
2023/08/15 16:10:00, 0.8,22.8
2023/08/15 16:20:00, 0.8,22.9
2023/08/15 16:30:00, 0.8,22.8
2023/08/15 16:40:00, 0.7,22.9
2023/08/15 16:50:00, 0.6,22.7
2023/08/15 17:00:00, 0.7,22.8
2023/08/15 17:10:00, 0.7,22.9
2023/08/15 17:20:00, 0.6,22.9
2023/08/15 17:30:00, 0.6,22.8
2023/08/15 17:40:00, 0.6,23.1
2023/08/15 17:50:00, 0.7,23.0
2023/08/15 18:00:00, 0.7,22.8
2023/08/15 18:10:00, 0.7,23.1
2023/08/15 18:20:00, 0.7,23.0
2023/08/15 18:30:00, 0.7,22.9
2023/08/15 18:40:00, 0.7,22.7
2023/08/15 18:50:00, 0.7,22.9
2023/08/15 19:00:00, 0.7,22.7
2023/08/15 19:10:00, 0.8,22.6
2023/08/15 19:20:00, 0.8,22.7
2023/08/15 19:30:00, 0.7,22.8
2023/08/15 19:40:00, 0.7,22.8
2023/08/15 19:50:00, 0.7,22.7
2023/08/15 20:00:00, 0.8,22.6
2023/08/15 20:10:00, 0.7,22.6
2023/08/15 20:20:00, 0.8,22.6
2023/08/15 20:30:00, 0.8,22.5
2023/08/15 20:40:00, 0.8,22.2
2023/08/15 20:50:00, 0.7,22.4
2023/08/15 21:00:00, 0.8,22.4
2023/08/15 21:10:00, 0.8,22.2
2023/08/15 21:20:00, 0.8,22.5
2023/08/15 21:30:00, 0.7,22.4
2023/08/15 21:40:00, 0.7,22.2
2023/08/15 21:50:00, 0.8,22.2
2023/08/15 22:00:00, 0.7,21.9
2023/08/15 22:10:00, 0.7,22.0
2023/08/15 22:20:00, 0.8,21.9
2023/08/15 22:30:00, 0.8,21.9
2023/08/15 22:40:00, 0.8,21.7
2023/08/15 22:50:00, 0.8,21.8
2023/08/15 23:00:00, 0.7,21.9
2023/08/15 23:10:00, 0.7,21.7
2023/08/15 23:20:00, 0.8,21.9
2023/08/15 23:30:00, 0.8,21.3
2023/08/15 23:40:00, 0.7,21.7
2023/08/15 23:50:00, 0.8,21.7
